Regional Weather Roundup
Issued by NWS

Home | Current Version | Previous Version | Text Only | Print | Product List | Glossary Off
Versions: 1 2 3 4 5 6 7 8 9 10 11 12 13 14 15 16 17 18 19 20 21 22 23 24 25 26 27 28 29 30 31 32 33 34 35 36 37 38 39 40 41 42 43 44 45 46 47 48 49 50

803
ASUS43 KLOT 200107
RWRIL

ILLINOIS REGIONAL WEATHER ROUNDUP
NATIONAL WEATHER SERVICE CHICAGO/ROMEOVILLE IL
700 PM CST THU JAN 19 2017

NOTE: "FAIR" INDICATES FEW OR NO CLOUDS BELOW 12,000 FEET WITH NO
SIGNIFICANT WEATHER AND/OR OBSTRUCTIONS TO VISIBILITY.

* THESE STATIONS ARE NOT UNDER NWS QUALITY CONTROL. THEY ALSO MAY NOT
  REPORT WEATHER SUCH AS PRECIPITATION OR FOG.

ILZ001-002-007-009-015-016-024-200200-
NORTHWEST ILLINOIS

CITY           SKY/WX    TMP DP  RH WIND       PRES   REMARKS
MOLINE         LGT RAIN  38  36  92 E9        29.75S FOG     WCI  31
STERLING*      LGT RAIN  37  36  93 E12       29.78F FOG     WCI  30
SAVANNA*       RAIN      37  36  98 E9        29.78F WCI  30
$$

ILZ003-004-008-010-011-017-018-200200-
NORTH CENTRAL ILLINOIS

CITY           SKY/WX    TMP DP  RH WIND       PRES   REMARKS
ROCKFORD       LGT RAIN  39  37  92 SE3       29.82S FOG
FREEPORT*      CLOUDY    35  35  99 CALM      29.82S FOG
ROCHELLE*      DRIZZLE   37  36  99 E6        29.81F WCI  32
DE KALB*       DRIZZLE   38  37  98 E7        29.81S WCI  32
$$

ILZ005-006-012>014-019>023-200200-
NORTHEAST ILLINOIS

CITY           SKY/WX    TMP DP  RH WIND       PRES   REMARKS
CHICAGO-OHARE  LGT RAIN  39  37  92 SE9       29.83S FOG     WCI  33
CHICAGO-MIDWAY LGT RAIN  38  36  92 SE7       29.84S FOG     WCI  33
AURORA         LGT RAIN  40  37  89 E9        29.81S FOG
LANSING*       LGT RAIN  38  38 100 SE5       29.84R WCI  34
JOLIET*        RAIN      40  39  97 E7        29.81F
WAUKEGAN       LGT RAIN  37  36  96 E8        29.82F FOG     WCI  31
DUPAGE AIRPORT LGT RAIN  39  35  86 E8        29.81R FOG     WCI  33
KANKAKEE*      LGT RAIN  39  38  97 E10       29.80F WCI  32
WHEELING       LGT RAIN  38  36  92 E3        29.83F FOG
MORRIS*        LGT RAIN  38  37  96 E7        29.80S WCI  33
ROMEOVILLE*    LGT RAIN  38  38 100 E12       29.80F WCI  30
NORTHERLY ISL    N/A     35  33  92 SE2         N/A
$$

LMZ740>746-200200-
SOUTHERN LAKE MICHIGAN

STATION/POSITION SKY/WX   TEMP    WIND        PRES    VSBY  WAVE
                          AIR SEA DIR/SP/G                  HT/PER
                          (F)     (DEG/KT/KT) (MB)    (MI)  (FT/S)
HARRISON CRIB              38     100/ 12/ 13   N/A
BURNHAM HARBOR             35     140/  2/  6   N/A
CALUMET HARBOR             35      80/  5/  7 1010.0F
BURNS HARBOR               39     110/ 12/ 15 1011.5F
MICHIGAN CITY              39      90/  6/  8   N/A
$$

ILZ025>027-034>036-040-047-049-050-058-095>099-200200-
WEST-CENTRAL ILLINOIS

CITY           SKY/WX    TMP DP  RH WIND       PRES   REMARKS
QUINCY         CLOUDY    43  43 100 E8        29.69F FOG
GALESBURG*     CLOUDY    39  39 100 E7        29.74S FOG     WCI  34
MACOMB*        CLOUDY    40  40 100 E7        29.75S FOG
JACKSONVILLE*  CLOUDY    42  42  99 E5        29.72F FOG
PITTSFIELD*    FOG       44  44  99 E5        29.71F VSB 1/4
$$

ILZ028>032-037-038-041>044-048-051>054-059>061-200200-
CENTRAL ILLINOIS

CITY           SKY/WX    TMP DP  RH WIND       PRES   REMARKS
PONTIAC        LGT RAIN  40  40 100 E18       29.77F
BLOOMINGTON    LGT RAIN  39  39 100 E16       29.74F FOG     WCI  30
DECATUR        CLOUDY    42  42 100 E9        29.74S FOG
PEORIA         CLOUDY    41  40  96 E6        29.75S
LACON*         CLOUDY    38  38 100 E5        29.76F FOG     WCI  35
LINCOLN*       LGT RAIN  42  42  99 E8        29.74S
SPRINGFIELD    CLOUDY    45  43  93 E7        29.74S FOG
TAYLORVILLE    CLOUDY    43  43 100 E6        29.72F FOG
$$

ILZ033-039-045-046-055>057-062-063-200200-
EAST-CENTRAL ILLINOIS

CITY           SKY/WX    TMP DP  RH WIND       PRES   REMARKS
CHAMPAIGN      LGT RAIN  42  40  92 E15       29.75F FOG
RANTOUL*       RAIN      43  42  97 E10       29.75F
MATTOON        CLOUDY    44  43  96 SE13      29.72F FOG
PARIS*         HVY RAIN  43  43 100 E13       29.76F
$$

ILZ079-100>102-200200-
SOUTHWEST ILLINOIS

CITY           SKY/WX    TMP DP  RH WIND       PRES   REMARKS
ALTON          FOG       45  45 100 E6        29.71F VSB 1/4
BELLEVILLE     FOG       46  46 100 CALM      29.68F VSB 1/8
CAHOKIA*       FOG       47  46  97 CALM      29.69F VSB 1/2
SPARTA*        FOG       47  46  99 CALM      29.69F VSB 1/2
$$

ILZ064>066-069>071-074>076-080>082-084>086-088>090-092>094-200200-
SOUTH-CENTRAL ILLINOIS

CITY           SKY/WX    TMP DP  RH WIND       PRES   REMARKS
CARBONDALE     FOG       49  49 100 E3        29.68F VSB 1
CAIRO*         CLOUDY    57  57 100 SE8       29.67F
EFFINGHAM*     DRIZZLE   45  45 100 E9        29.73F
MARION         DRIZZLE   52  52 100 E5        29.69F
MT. VERNON     LGT RAIN  47  47 100 NE3       29.69F FOG
CENTRALIA*     CLOUDY    47  47 100 E6        29.69F FOG
SALEM*         LGT RAIN  47  46  95 E6        29.70F
METROPOLIS*    LGT RAIN  56  56  99 CALM      29.70F
$$

ILZ067-068-072-073-078-083-087-091-200200-
SOUTHEAST ILLINOIS

CITY           SKY/WX    TMP DP  RH WIND       PRES   REMARKS
LAWRENCEVILLE  HVY RAIN  47  47 100 E6        29.74F FOG
FLORA*         CLOUDY    48  47  97 E5        29.72F FOG
FAIRFIELD*     DRIZZLE   48  48 100 CALM      29.70F
HARRISBURG*    LGT RAIN  52  52 100 SE3       29.70F
ROBINSON*      HVY RAIN  45  45  99 SE8       29.76F
CARMI*         RAIN      52  52 100 SE7       29.70F
$$

ABBREVIATIONS USED IN REMARKS
   TC - TEMPERATURE IN CELSIUS
  WCI - WIND CHILL INDEX
   HX - HEAT INDEX
  VSB - VISIBILITY
$$





USA.gov is the U.S. government's official web portal to all federal, state and local government web resources and services.